Location: South Tamworth Observatory
(43.8246°N, 71.3026°W)
Time: 19:39:34
(UTC-05:00)

Amateur Radio Satellites - All Passes

Search period start: 20 February 2017 19:09
Search period end: 21 February 2017 19:09
Location: South Tamworth Observatory, 43.8246°N, 71.3026°W

Satellite Date Start Highest point End Downlink Frequencies (MHz)
Time Altitude Azimuth
CUBEBUG 2 20 Feb 19:11:23 19:15:45 81° 259° (W) 19:20:18 437.445
YUBILEINY 20 Feb 19:12:54 19:14:54 11° 50° (NE) 19:16:54 435.215
SEEDS 20 Feb 19:22:09 19:26:08 39° 262° (W) 19:30:08 437.485
STRAND 1 20 Feb 19:24:02 19:29:14 87° 282° (WNW) 19:34:23 437.568
AAUSAT CUBESAT 2 20 Feb 19:27:24 19:31:33 68° 259° (W) 19:35:43 437.432
AO-73 20 Feb 19:49:12 19:53:36 89° 96° (E) 19:58:09 145.935
CUTE 1.7 + AOD 2 20 Feb 19:52:13 19:54:28 14° 270° (W) 19:56:44 437.475
UWE-3 20 Feb 20:00:43 20:04:49 38° 263° (W) 20:09:03 435.000/436.395/437.385
Oscar 11 20 Feb 20:03:00 20:07:20 73° 258° (WSW) 20:11:43 .
DELFI C3 20 Feb 20:13:18 20:17:06 45° 72° (ENE) 20:20:55 145.870
HO-68 20 Feb 20:23:33 20:27:39 16° 272° (W) 20:31:45 435.675
ZACube-1 20 Feb 20:34:25 20:38:15 29° 265° (W) 20:42:10 437.345
STRAND 1 20 Feb 21:05:19 21:07:37 13° 303° (WNW) 21:09:56 437.568
YUBILEINY 20 Feb 21:05:41 21:14:13 53° 75° (ENE) 21:22:38 435.215
RS-15 20 Feb 21:07:17 21:18:01 33° 337° (NNW) 21:28:53 29.354- 29.394
ESTCUBE 1 20 Feb 21:13:35 21:16:42 19° 63° (ENE) 21:19:49 437.505/2401.250
FO-29 20 Feb 21:16:51 21:22:43 23° 87° (E) 21:28:16 435.910
PRISM 20 Feb 21:32:25 21:36:30 77° 285° (WNW) 21:40:33 437.425
UNISAT 6 20 Feb 21:40:31 21:45:09 53° 100° (E) 21:49:44 437.425
TIGRISAT 20 Feb 21:42:31 21:47:08 52° 100° (E) 21:51:42 435.000
DELFI C3 20 Feb 21:49:54 21:52:08 15° 269° (W) 21:54:23 145.870
VELOX 1 20 Feb 22:01:57 22:05:06 20° 64° (ENE) 22:08:16 145.980
DX 1 20 Feb 22:12:45 22:14:26 12° 60° (ENE) 22:16:07 434.975-435.025
O/OREOS (USA 219) 20 Feb 22:15:03 22:17:34 15° 99° (E) 22:20:08 437.305
AIST 2D 20 Feb 22:17:57 22:20:17 16° 92° (E) 22:22:37 435.315
POLYITAN 1 20 Feb 22:26:43 22:29:11 15° 91° (E) 22:31:36 437.675
QB50P2 20 Feb 22:29:10 22:31:57 17° 92° (E) 22:34:44 145.880/145.840
NANOSAT C BR1 20 Feb 22:31:15 22:33:44 15° 91° (E) 22:36:12 145.865
UKube-1 20 Feb 22:34:42 22:37:06 15° 61° (ENE) 22:39:30 .
SPROUT 20 Feb 22:48:31 22:52:33 44° 71° (ENE) 22:56:38 437.525
ESTCUBE 1 20 Feb 22:48:45 22:53:08 49° 261° (W) 22:57:32 437.505/2401.250
SO-50 20 Feb 22:54:14 22:58:45 49° 119° (ESE) 23:03:13 436.795
FO-29 20 Feb 23:00:40 23:08:31 77° 287° (WNW) 23:15:45 435.910
YUBILEINY 20 Feb 23:03:00 23:10:40 36° 276° (W) 23:18:18 435.215
UNISAT 6 20 Feb 23:18:11 23:21:26 19° 297° (WNW) 23:24:42 437.425
TIGRISAT 20 Feb 23:20:06 23:23:25 19° 297° (WNW) 23:26:42 435.000
50 SAT 20 Feb 23:23:12 23:26:43 79° 257° (WSW) 23:30:15 437.505
BUGSAT 1 20 Feb 23:24:29 23:27:26 18° 93° (E) 23:30:23 437.445
RS-15 20 Feb 23:25:13 23:35:34 29° 12° (NNE) 23:45:47 29.354- 29.394
VELOX 1 20 Feb 23:37:05 23:41:16 43° 261° (W) 23:45:28 145.980
DUCHIFAT 1 20 Feb 23:40:30 23:44:47 77° 101° (E) 23:49:03 145.980
EO-79 20 Feb 23:45:08 23:49:26 80° 286° (WNW) 23:53:42 145.935-145.965
DX 1 20 Feb 23:45:41 23:50:00 76° 257° (WSW) 23:54:22 434.975-435.025
AIST 2D 20 Feb 23:50:25 23:53:37 31° 289° (WNW) 23:56:48 435.315
O/OREOS (USA 219) 20 Feb 23:52:05 23:56:28 56° 297° (WNW) 00:00:55 437.305
PCSat 20 Feb 23:52:23 23:55:06 14° 33° (NNE) 23:57:49 145.827
POLYITAN 1 21 Feb 00:01:04 00:05:16 53° 288° (WNW) 00:09:27 437.675
QB50P2 21 Feb 00:03:52 00:08:00 46° 288° (WNW) 00:12:05 145.880/145.840
NANOSAT C BR1 21 Feb 00:05:35 00:09:45 51° 287° (WNW) 00:13:53 145.865
UKube-1 21 Feb 00:08:25 00:12:39 59° 258° (WSW) 00:16:56 .
SPROUT 21 Feb 00:25:54 00:28:42 17° 268° (W) 00:31:31 437.525
SO-50 21 Feb 00:35:33 00:39:26 26° 317° (NW) 00:43:19 436.795
FO-29 21 Feb 00:47:14 00:52:13 19° 308° (NW) 00:57:04 435.910
Oscar 19 21 Feb 00:57:27 01:02:25 48° 99° (E) 01:07:21 437.125/150
BUGSAT 1 21 Feb 00:58:59 01:02:58 41° 289° (WNW) 01:06:57 437.445
Gurwin Techsat 1B 21 Feb 01:01:20 01:05:59 30° 95° (E) 01:10:37 435.225
MOZHAYETS 4 21 Feb 01:03:09 01:05:30 14° 61° (ENE) 01:07:53
DUCHIFAT 1 21 Feb 01:18:23 01:19:51 12° 300° (WNW) 01:21:18 145.980
ITUPSAT 1 21 Feb 01:21:21 01:26:02 56° 72° (ENE) 01:30:45 437.325
BEESAT 21 Feb 01:31:22 01:36:07 71° 74° (ENE) 01:40:55 436.000
PCSat 21 Feb 01:34:18 01:39:41 59° 55° (NE) 01:45:02 145.827
RS-15 21 Feb 01:39:27 01:51:38 57° 44° (NE) 02:03:20 29.354- 29.394
AO-7 21 Feb 02:06:45 02:12:54 22° 91° (E) 02:18:59 .
KKS-1 21 Feb 02:10:28 02:13:26 18° 63° (ENE) 02:16:25 437.445
MOZHAYETS 4 21 Feb 02:37:26 02:42:04 73° 258° (WSW) 02:46:44
Oscar 19 21 Feb 02:37:26 02:41:25 23° 297° (WNW) 02:45:24 437.125/150
Gurwin Techsat 1B 21 Feb 02:41:06 02:45:59 38° 293° (WNW) 02:50:51 435.225
STARS 21 Feb 02:58:05 03:01:36 25° 66° (ENE) 03:05:09 437.465
ITAMSAT 1 21 Feb 02:59:00 03:04:15 66° 102° (ESE) 03:09:26 435.822/435.867
ITUPSAT 1 21 Feb 03:01:04 03:04:12 17° 268° (W) 03:07:23 437.325
BEESAT 21 Feb 03:12:07 03:14:25 13° 271° (W) 03:16:42 436.000
PCSat 21 Feb 03:18:36 03:22:38 22° 253° (WSW) 03:26:39 145.827
CUBESAT XI-V 21 Feb 03:23:16 03:27:49 55° 73° (ENE) 03:32:23 437.345
M-CUBED/EXP-1 PRIME 21 Feb 03:31:45 03:34:59 49° 69° (ENE) 03:38:09 437.505
KKS-1 21 Feb 03:45:21 03:49:37 49° 260° (W) 03:53:56 437.445
RS-15 21 Feb 03:52:29 04:04:08 53° 249° (WSW) 04:15:21 29.354- 29.394
AO-7 21 Feb 03:58:12 04:06:33 82° 291° (WNW) 04:14:50 .
STARS 21 Feb 04:33:51 04:37:48 33° 263° (W) 04:41:47 437.465
AO-85 21 Feb 04:37:21 04:41:29 34° 117° (ESE) 04:45:23 145.980
ITAMSAT 1 21 Feb 04:39:39 04:43:10 19° 300° (WNW) 04:46:42 435.822/435.867
DOVE 4 21 Feb 05:00:20 05:03:48 21° 93° (E) 05:07:22 437.250
CUBESAT XI-V 21 Feb 05:02:36 05:05:32 16° 269° (W) 05:08:28 437.345
STRAND 1 21 Feb 05:03:47 05:07:34 21° 62° (ENE) 05:11:23 437.568
CUTE-I 21 Feb 05:11:05 05:15:18 23° 93° (E) 05:19:29 437.470
XW-2F 21 Feb 05:12:23 05:15:16 20° 94° (E) 05:18:07 145.980 - 146.000
XW-2D 21 Feb 05:13:49 05:16:52 22° 94° (E) 05:19:53 145.860 - 145.880
KAITUO 1B 21 Feb 05:16:06 05:18:49 19° 93° (E) 05:21:31 145.475/437.950
XW-2B 21 Feb 05:18:39 05:21:49 24° 95° (E) 05:24:58 145.730 - 145.750
XW-2C 21 Feb 05:26:52 05:30:18 30° 96° (E) 05:33:42 145.795 - 145.815
LilacSat-2 21 Feb 05:38:11 05:41:54 43° 98° (E) 05:45:34 437.200
SO-50 21 Feb 05:45:14 05:47:20 13° 32° (NNE) 05:49:27 436.795
AO-7 21 Feb 05:52:20 05:58:09 22° 312° (NW) 06:03:57 .
NUDT-PHONESAT 21 Feb 05:56:19 06:00:03 56° 100° (E) 06:03:45 437.300
HO-68 21 Feb 05:59:47 06:04:05 17° 88° (E) 06:08:21 435.675
AO-85 21 Feb 06:17:58 06:21:54 30° 313° (NW) 06:25:38 145.980
DOVE 4 21 Feb 06:37:18 06:41:37 44° 288° (WNW) 06:46:11 437.250
STRAND 1 21 Feb 06:41:20 06:46:21 54° 260° (W) 06:51:25 437.568
XW-2F 21 Feb 06:46:05 06:49:28 30° 290° (WNW) 06:52:49 145.980 - 146.000
XW-2D 21 Feb 06:47:45 06:51:03 28° 291° (WNW) 06:54:19 145.860 - 145.880
KAITUO 1B 21 Feb 06:49:31 06:52:56 32° 290° (WNW) 06:56:17 145.475/437.950
CUTE-I 21 Feb 06:50:25 06:55:37 50° 290° (WNW) 07:00:47 437.470
XW-2B 21 Feb 06:52:45 06:55:58 25° 291° (WNW) 06:59:07 145.730 - 145.750
XW-2A 21 Feb 06:53:17 06:56:41 50° 100° (E) 07:00:03 145.665 - 145.685
CUBEBUG 2 21 Feb 07:01:19 07:04:57 21° 92° (E) 07:08:35 437.445
XW-2C 21 Feb 07:01:26 07:04:20 21° 293° (WNW) 07:07:13 145.795 - 145.815
SEEDS 21 Feb 07:04:34 07:08:15 29° 96° (E) 07:11:53 437.485
BEESAT 3 21 Feb 07:05:31 07:09:21 63° 121° (ESE) 07:13:17 437.485
AAUSAT CUBESAT 2 21 Feb 07:09:12 07:11:51 16° 92° (E) 07:14:28 437.432
LilacSat-2 21 Feb 07:13:30 07:15:50 15° 296° (WNW) 07:18:08 437.200
SO-50 21 Feb 07:24:13 07:28:43 63° 52° (NE) 07:33:09 436.795
NUDT-PHONESAT 21 Feb 07:32:03 07:33:31 12° 297° (WNW) 07:34:59 437.300
FO-29 21 Feb 07:32:40 07:36:06 14° 48° (NE) 07:39:38 435.910
BEESAT 2 21 Feb 07:33:01 07:36:50 51° 120° (ESE) 07:40:44 435.950
CUTE 1.7 + AOD 2 21 Feb 07:33:12 07:37:28 87° 281° (W) 07:41:40 437.475
AO-73 21 Feb 07:36:57 07:39:54 17° 91° (E) 07:42:48 145.935
HO-68 21 Feb 07:45:32 07:52:44 89° 103° (ESE) 07:59:54 435.675
UWE-3 21 Feb 07:48:31 07:52:56 39° 97° (E) 07:57:17 435.000/436.395/437.385
Oscar 11 21 Feb 07:49:42 07:52:46 19° 92° (E) 07:55:48 .
ISS 21 Feb 08:18:55 08:20:38 14° 132° (SE) 08:22:22 437.550
ZACube-1 21 Feb 08:20:33 08:25:02 51° 99° (E) 08:29:27 437.345
YUBILEINY 21 Feb 08:21:26 08:21:40 10° 70° (ENE) 08:21:53 435.215
O/OREOS (USA 219) 21 Feb 08:21:28 08:25:45 38° 60° (ENE) 08:30:02 437.305
PRISM 21 Feb 08:22:32 08:26:38 89° 75° (ENE) 08:30:44 437.425
XW-2A 21 Feb 08:28:00 08:29:01 11° 296° (WNW) 08:30:01 145.665 - 145.685
CUBEBUG 2 21 Feb 08:37:13 08:41:44 44° 289° (WNW) 08:46:15 437.445
UNISAT 6 21 Feb 08:40:20 08:44:39 53° 72° (ENE) 08:49:08 437.425
SEEDS 21 Feb 08:40:23 08:43:50 25° 292° (WNW) 08:47:14 437.485
TIGRISAT 21 Feb 08:42:10 08:46:29 51° 72° (ENE) 08:50:55 435.000
AAUSAT CUBESAT 2 21 Feb 08:43:37 08:47:31 43° 288° (WNW) 08:51:24 437.432
BEESAT 3 21 Feb 08:44:44 08:47:22 17° 320° (NW) 08:50:02 437.485
Tancredo 1 21 Feb 08:54:19 08:57:12 29° 138° (SE) 09:00:05 437.200
SO-50 21 Feb 09:06:00 09:08:40 16° 250° (WSW) 09:11:19 436.795
BEESAT 2 21 Feb 09:11:56 09:14:54 20° 318° (NW) 09:17:54 435.950
AO-73 21 Feb 09:11:58 09:16:26 52° 288° (WNW) 09:20:48 145.935
FO-29 21 Feb 09:12:38 09:19:26 59° 69° (ENE) 09:26:58 435.910
POLYITAN 1 21 Feb 09:21:06 09:23:20 14° 62° (ENE) 09:25:34 437.675
QB50P2 21 Feb 09:23:28 09:26:02 16° 63° (ENE) 09:28:36 145.880/145.840
DELFI C3 21 Feb 09:23:33 09:27:28 63° 102° (ESE) 09:31:20 145.870
Oscar 11 21 Feb 09:25:00 09:29:05 42° 289° (WNW) 09:33:09 .
NANOSAT C BR1 21 Feb 09:25:09 09:27:23 14° 62° (ENE) 09:29:37 145.865
UWE-3 21 Feb 09:25:25 09:29:09 24° 294° (WNW) 09:32:51 435.000/436.395/437.385
HO-68 21 Feb 09:34:37 09:39:33 21° 307° (NW) 09:44:29 435.675
ISS 21 Feb 09:53:23 09:56:41 83° 326° (NW) 10:00:00 437.550
ZACube-1 21 Feb 09:57:45 10:00:55 19° 296° (WNW) 10:04:03 437.345
O/OREOS (USA 219) 21 Feb 10:01:19 10:04:56 23° 258° (WSW) 10:08:34 437.305
YUBILEINY 21 Feb 10:07:50 10:16:24 58° 90° (E) 10:24:56 435.215
BUGSAT 1 21 Feb 10:16:08 10:18:31 15° 63° (ENE) 10:20:56 437.445
UNISAT 6 21 Feb 10:18:56 10:21:43 16° 270° (W) 10:24:33 437.425
TIGRISAT 21 Feb 10:20:38 10:23:29 17° 269° (W) 10:26:24 435.000
AIST 2D 21 Feb 10:25:24 10:28:57 75° 259° (W) 10:32:32 435.315
Tancredo 1 21 Feb 10:30:17 10:33:24 43° 335° (NNW) 10:36:33 437.200
DUCHIFAT 1 21 Feb 10:33:10 10:37:19 65° 74° (ENE) 10:41:31 145.980
EO-79 21 Feb 10:38:21 10:42:34 89° 88° (E) 10:46:50 145.935-145.965
ESTCUBE 1 21 Feb 10:39:55 10:43:54 30° 96° (E) 10:47:49 437.505/2401.250
Oscar 19 21 Feb 10:40:17 10:42:09 12° 56° (NE) 10:44:00 437.125/150
POLYITAN 1 21 Feb 10:54:26 10:58:37 61° 259° (W) 11:02:51 437.675
QB50P2 21 Feb 10:57:17 11:01:24 52° 260° (W) 11:05:35 145.880/145.840
NANOSAT C BR1 21 Feb 10:58:28 11:02:37 60° 259° (W) 11:06:49 145.865
FO-29 21 Feb 10:58:58 11:04:54 30° 270° (W) 11:11:21 435.910
DELFI C3 21 Feb 11:00:18 11:01:45 12° 298° (WNW) 11:03:10 145.870
VELOX 1 21 Feb 11:25:38 11:29:32 30° 96° (E) 11:33:26 145.980
ISS 21 Feb 11:30:44 11:33:31 24° 348° (NNW) 11:36:18 437.550
DX 1 21 Feb 11:33:30 11:36:17 17° 92° (E) 11:39:03 434.975-435.025
BUGSAT 1 21 Feb 11:49:35 11:53:28 49° 260° (W) 11:57:28 437.445
UKube-1 21 Feb 11:54:41 11:57:52 20° 94° (E) 12:01:02 .
YUBILEINY 21 Feb 12:05:50 12:13:37 34° 292° (WNW) 12:21:27 435.215
Tancredo 1 21 Feb 12:07:46 12:10:18 20° 356° (N) 12:12:48 437.200
SPROUT 21 Feb 12:08:19 12:12:38 73° 102° (ESE) 12:16:56 437.525
DUCHIFAT 1 21 Feb 12:12:01 12:13:26 11° 271° (W) 12:14:53 145.980
Oscar 19 21 Feb 12:15:28 12:20:37 80° 74° (ENE) 12:25:48 437.125/150
ESTCUBE 1 21 Feb 12:16:47 12:20:36 28° 293° (WNW) 12:24:24 437.505/2401.250
50 SAT 21 Feb 12:19:49 12:23:17 87° 296° (WNW) 12:26:45 437.505
Gurwin Techsat 1B 21 Feb 12:23:32 12:28:42 54° 71° (ENE) 12:33:53 435.225
ITAMSAT 1 21 Feb 12:41:23 12:44:38 17° 59° (ENE) 12:47:54 435.822/435.867
VELOX 1 21 Feb 13:02:11 13:05:54 27° 293° (WNW) 13:09:36 145.980
AO-7 21 Feb 13:06:53 13:14:20 38° 58° (ENE) 13:21:48 .
AO-85 21 Feb 13:07:07 13:10:50 40° 50° (NE) 13:14:33 145.980
ISS 21 Feb 13:08:05 13:10:44 22° 8° (N) 13:13:23 437.550
DX 1 21 Feb 13:08:32 13:12:44 48° 289° (WNW) 13:16:54 434.975-435.025
ITUPSAT 1 21 Feb 13:22:22 13:24:27 13° 89° (E) 13:26:31 437.325
UKube-1 21 Feb 13:30:01 13:34:03 39° 290° (WNW) 13:38:03 .
BEESAT 21 Feb 13:31:20 13:34:18 16° 91° (E) 13:37:14 436.000
Tancredo 1 21 Feb 13:44:29 13:47:18 27° 15° (NNE) 13:50:07 437.200
BEESAT 3 21 Feb 13:45:59 13:46:34 10° 32° (NNE) 13:47:09 437.485
SPROUT 21 Feb 13:46:12 13:47:58 12° 299° (WNW) 13:49:44 437.525
Oscar 19 21 Feb 13:58:13 14:00:32 13° 271° (W) 14:02:52 437.125/150
Gurwin Techsat 1B 21 Feb 14:05:02 14:08:58 21° 268° (W) 14:12:54 435.225
ITAMSAT 1 21 Feb 14:18:19 14:23:30 73° 257° (WSW) 14:28:44 435.822/435.867
MOZHAYETS 4 21 Feb 14:31:38 14:35:22 24° 94° (E) 14:39:03
ISS 21 Feb 14:44:27 14:47:42 56° 27° (NNE) 14:50:56 437.550
AO-85 21 Feb 14:48:08 14:50:57 19° 247° (WSW) 14:53:48 145.980
ITUPSAT 1 21 Feb 14:57:59 15:02:49 75° 287° (WNW) 15:07:35 437.325
AO-7 21 Feb 14:58:37 15:06:48 56° 257° (WSW) 15:15:00 .
BEESAT 21 Feb 15:07:44 15:12:27 59° 288° (WNW) 15:17:08 436.000
CUBESAT XI-V 21 Feb 15:20:24 15:22:13 12° 88° (E) 15:24:01 437.345
Tancredo 1 21 Feb 15:20:38 15:23:51 72° 216° (SW) 15:27:02 437.200
BEESAT 3 21 Feb 15:21:05 15:25:03 57° 53° (NE) 15:28:59 437.485
KKS-1 21 Feb 15:34:59 15:38:49 27° 96° (E) 15:42:36 437.445
BEESAT 2 21 Feb 15:49:24 15:53:21 48° 51° (NE) 15:57:16 435.950
XW-2F 21 Feb 15:55:45 15:57:35 13° 63° (ENE) 15:59:26 145.980 - 146.000
XW-2D 21 Feb 15:57:18 15:59:26 14° 64° (ENE) 16:01:35 145.860 - 145.880
KAITUO 1B 21 Feb 15:58:52 16:00:21 12° 63° (ENE) 16:01:50 145.475/437.950
XW-2B 21 Feb 16:01:59 16:04:20 16° 65° (ENE) 16:06:42 145.730 - 145.750
RS-15 21 Feb 16:06:54 16:15:59 27° 100° (E) 16:25:17 29.354- 29.394
DOVE 4 21 Feb 16:07:52 16:10:59 21° 66° (ENE) 16:14:07 437.250
MOZHAYETS 4 21 Feb 16:08:22 16:12:36 37° 291° (WNW) 16:16:49
XW-2C 21 Feb 16:09:55 16:12:42 19° 66° (ENE) 16:15:30 145.795 - 145.815
PCSat 21 Feb 16:17:22 16:22:22 40° 112° (ESE) 16:27:25 145.827
STARS 21 Feb 16:21:17 16:25:25 37° 98° (E) 16:29:32 437.465
ISS 21 Feb 16:21:22 16:23:56 21° 225° (SW) 16:26:29 437.550
LilacSat-2 21 Feb 16:21:25 16:24:41 27° 69° (ENE) 16:27:59 437.200
HO-68 21 Feb 16:31:14 16:35:28 17° 51° (NE) 16:39:43 435.675
CUTE-I 21 Feb 16:33:56 16:38:56 42° 68° (ENE) 16:43:58 437.470
NUDT-PHONESAT 21 Feb 16:37:04 16:40:24 31° 70° (ENE) 16:43:45 437.300
M-CUBED/EXP-1 PRIME 21 Feb 16:42:24 16:45:39 29° 103° (ESE) 16:49:06 437.505
CUBESAT XI-V 21 Feb 16:55:30 17:00:06 72° 285° (WNW) 17:04:40 437.345
BEESAT 3 21 Feb 16:59:59 17:02:13 15° 250° (WSW) 17:04:25 437.485
KKS-1 21 Feb 17:11:25 17:15:21 31° 292° (WNW) 17:19:16 437.445
XW-2A 21 Feb 17:26:30 17:29:07 21° 68° (ENE) 17:31:45 145.665 - 145.685
XW-2F 21 Feb 17:27:33 17:31:18 52° 261° (W) 17:35:05 145.980 - 146.000
BEESAT 2 21 Feb 17:28:03 17:30:47 18° 248° (WSW) 17:33:29 435.950
XW-2D 21 Feb 17:29:31 17:33:14 47° 261° (W) 17:36:59 145.860 - 145.880
KAITUO 1B 21 Feb 17:30:08 17:33:53 58° 260° (W) 17:37:40 145.475/437.950
XW-2B 21 Feb 17:34:32 17:38:11 42° 262° (W) 17:41:53 145.730 - 145.750
XW-2C 21 Feb 17:43:11 17:46:41 33° 263° (W) 17:50:13 145.795 - 145.815
DOVE 4 21 Feb 17:44:44 17:48:31 34° 263° (W) 17:52:19 437.250
LilacSat-2 21 Feb 17:55:47 17:58:57 24° 266° (W) 18:02:08 437.200
SEEDS 21 Feb 17:57:30 18:00:59 25° 68° (ENE) 18:04:27 437.485
STARS 21 Feb 17:58:05 18:01:33 23° 295° (WNW) 18:05:00 437.465
PCSat 21 Feb 18:00:54 18:05:49 34° 311° (NW) 18:10:47 145.827
CUBEBUG 2 21 Feb 18:00:59 18:04:12 20° 64° (ENE) 18:07:29 437.445
AAUSAT CUBESAT 2 21 Feb 18:01:13 18:03:27 14° 63° (ENE) 18:05:42 437.432
NUDT-PHONESAT 21 Feb 18:11:38 18:14:23 19° 267° (W) 18:17:09 437.300
CUTE-I 21 Feb 18:14:39 18:19:07 27° 266° (W) 18:23:37 437.470
RS-15 21 Feb 18:14:50 18:26:50 89° 302° (WNW) 18:39:19 29.354- 29.394
HO-68 21 Feb 18:14:54 18:22:03 76° 71° (ENE) 18:29:14 435.675
M-CUBED/EXP-1 PRIME 21 Feb 18:17:12 18:20:01 22° 297° (WNW) 18:22:59 437.505
CUTE 1.7 + AOD 2 21 Feb 18:26:34 18:30:51 77° 76° (ENE) 18:35:08 437.475
AO-73 21 Feb 18:34:00 18:36:43 16° 62° (ENE) 18:39:28 145.935
Oscar 11 21 Feb 18:45:59 18:48:57 18° 64° (ENE) 18:51:55 .
UWE-3 21 Feb 18:46:34 18:50:36 36° 70° (ENE) 18:54:46 435.000/436.395/437.385
STRAND 1 21 Feb 18:50:21 18:55:20 46° 99° (E) 19:00:16 437.568
XW-2A 21 Feb 18:59:05 19:01:47 22° 265° (W) 19:04:32 145.665 - 145.685
